Regional Weather Roundup
Issued by NWS

Home | Current Version | Previous Version | Text Only | Print | Product List | Glossary On
Versions: 1 2 3 4 5 6 7 8 9 10 11 12 13 14 15 16 17 18 19 20 21 22 23 24 25 26 27 28 29 30 31 32 33 34 35 36 37 38 39 40 41 42 43 44 45 46 47 48 49 50
000
ASUS43 KMPX 031510
RWRMN
WEATHER ROUNDUP FOR MINNESOTA
NATIONAL WEATHER SERVICE TWIN CITIES/CHANHASSEN MN
1000 AM CDT SUN MAY 03 2015


NOTE: "FAIR" INDICATES FEW OR NO CLOUDS BELOW 12,000 FEET WITH NO
SIGNIFICANT WEATHER AND/OR OBSTRUCTIONS TO VISIBILITY. N/A MEANS
CURRENT SKY AND/OR WEATHER CONDITIONS ARE NOT AVAILABLE.

MNZ060>063-068>070-031600-
   Twin Cities Metro

CITY           SKY/WX    TMP DP  RH WIND       PRES   REMARKS
TWIN CITIES    PTSUNNY   64  52  64 S13       29.77F
ST PAUL        PTSUNNY   66  53  63 S10       29.78F
CRYSTAL        PTSUNNY   65  53  65 S12       29.75F
BLAINE         PTSUNNY   64  54  68 S9        29.77S
LAKEVILLE      PTSUNNY   64  54  68 W3        29.80S
EDEN PRAIRIE   PTSUNNY   65  53  65 S18       29.75F
SOUTH ST PAUL  PTSUNNY   66  52  60 S10       29.78F
LAKE ELMO      FAIR      64  54  68 S9        29.80S
$$
MNZ001>005-007-008-013>017-022>024-027-028-031600-
   Northwest Minnesota

CITY           SKY/WX    TMP DP  RH WIND       PRES   REMARKS
BEMIDJI        MOSUNNY   64  39  39 W17       29.81R
HALLOCK        PTSUNNY   57  39  51 NW14      29.84R
ROSEAU         PTSUNNY   55  43  62 NW9       29.81R
WARROAD        PTSUNNY   55  43  62 W8        29.80R
THIEF RVR FALL CLOUDY    55  39  54 NW12      29.85R
CROOKSTON      CLOUDY    55  41  58 NW15      29.87R
DETROIT LAKES  PTSUNNY   59  46  63 N18       29.85R
MOORHEAD       CLOUDY    59  43  55 N18       29.87R
PARK RAPIDS    MOSUNNY   69  40  34 N16G22    29.79R
MAHNOMEN       PTSUNNY   57  41  55 NW16      29.85R
$$
MNZ006-009>011-018-025>026-031600-
   North Central Minnesota

CITY           SKY/WX    TMP DP  RH WIND       PRES   REMARKS
BAUDETTE       MOSUNNY   56  40  55 NW17      29.77R
FLAG ISLAND    MOSUNNY   50  41  71 NW7       29.77R
INTL FALLS     MOSUNNY   62  46  55 W9        29.72S
WASKISH        PTSUNNY   55  48  76 SW12      29.79R
BIG FORK       MOSUNNY   70  37  30 NW8G17    29.75R
LONGVILLE      SUNNY     68  45  42 NW5       29.77R
GRAND RAPIDS   MOSUNNY   66  48  52 NW12      29.76R
CRANE LAKE     MOSUNNY   66  45  45 W3        29.72S
ORR            PTSUNNY   68  43  40 CALM      29.70S
COOK           MOSUNNY   66  46  48 W6        29.73S
WALKER         FAIR      69  34  27 NW7G16    29.78R
$$
MNZ012-019>021-037-031600-
   Northeast Minnesota

CITY           SKY/WX    TMP DP  RH WIND       PRES   REMARKS
DULUTH         SUNNY     70  51  51 W16G22    29.74S
ELY            MOSUNNY   66  46  48 W8        29.71F
HIBBING        MOSUNNY   70  46  42 NW13      29.74R
EVELETH        MOSUNNY   66  46  48 W12       29.74S
DULUTH HARBOR  SUNNY     68  55  64 SW14      29.73S
TWO HARBORS    SUNNY     73  55  53 W7        29.70F
SILVER BAY     SUNNY     72  52  49 W9        29.70S
GRAND MARAIS     N/A     45  40  82 SW6       29.69F
G MARAIS ARPRT MOSUNNY   66  46  48 SW10G21   29.72F
$$
MNZ029>031-032-039>041-046>048-054>057-064-031600-
   West Central Minnesota

CITY           SKY/WX    TMP DP  RH WIND       PRES   REMARKS
FERGUS FALLS   MOSUNNY   68  46  45 N17G29    29.80R
WHEATON        SUNNY     63  48  59 NW15G24   29.83R
MORRIS         SUNNY     64  55  72 N9        29.78R
ALEXANDRIA     SUNNY     64  55  72 W7        29.81R
ELBOW LAKE     PTSUNNY   63  55  75 NW7       29.80R
WADENA         MOSUNNY   66  48  52 N12G20    29.77S
GLENWOOD       MOSUNNY   59  55  88 NW8       29.80R
APPLETON       SUNNY     68  54  60 W5        29.77R
BENSON         SUNNY     66  54  63 CALM      29.77S
ORTONVILLE     SUNNY     66  54  63 NW10      29.78R
MADISON        SUNNY     66  54  63 N6        29.77R
WILLMAR        FAIR      68  55  64 SW7       29.77R
$$
MNZ033>034-036-042>043-049>051-058-059-031600-
   Central Minnesota

CITY           SKY/WX    TMP DP  RH WIND       PRES   REMARKS
ST CLOUD       PTSUNNY   61  54  77 S8        29.76S
SAUK CENTRE    FAIR      62  56  81 NW10      29.79R
PAYNESVILLE    CLOUDY    60  54  78 SE7       29.77R
AITKIN         SUNNY     70  52  52 W3        29.75R
PINE RIVER     SUNNY     68  48  49 N9        29.80R
BRAINERD       SUNNY     67  53  61 NW7       29.77S
STAPLES        MOSUNNY   66  52  59 NW10      29.78R
LONG PRAIRIE   CLOUDY    64  55  72 NW3       29.79S
LITTLE FALLS   MOSUNNY   64  54  68 CALM      29.77S
LITCHFIELD     MOSUNNY   66  55  68 CALM      29.77R
BUFFALO        CLOUDY    60  52  74 CALM      29.79R
MAPLE LAKE     LGT RAIN  60  56  88 NW3       29.79R
$$
MNZ037-044-045-052-053-031600-
   East Central Minnesota

CITY           SKY/WX    TMP DP  RH WIND       PRES   REMARKS
PRINCETON      PTSUNNY   64  54  68 S5        29.77F
MORA           SUNNY     64  54  68 SW6       29.80R
CAMBRIDGE      MOSUNNY   68  54  60 W7        29.76S
RUSH CITY      MOSUNNY   65  53  63 S5        29.79R
MOOSE LAKE     SUNNY     68  54  60 S3        29.74S
HINCKLEY       FAIR      66  54  63 S6        29.78S
CLOQUET        SUNNY     70  50  49 W6        29.74S
MCGREGOR       SUNNY     66  52  59 W6        29.76R
$$
MNZ071>073-080-081-089-090-097-098-031600-
   Southwest Minnesota

CITY           SKY/WX    TMP DP  RH WIND       PRES   REMARKS
MONTEVIDEO     SUNNY     70  55  60 W5        29.77S
GRANITE FALLS  SUNNY     65  56  71 SE5       29.77S
CANBY          SUNNY     67  55  65 NW10      29.78R
MARSHALL       SUNNY     68  52  56 W6        29.76S
REDWOOD FALLS  SUNNY     68  54  60 SE7       29.76S
OLIVIA         SUNNY     64  52  63 S8        29.74S
PIPESTONE      SUNNY     70  52  52 SW14      29.76R
WINDOM         MOSUNNY   72  52  49 S5        29.77S
WORTHINGTON    MOSUNNY   70  52  52 S9        29.78R
JACKSON        MOSUNNY   70  48  46 SW8       29.79R
TRACY          MOSUNNY   72  55  55 SW7       29.76S
SLAYTON        MOSUNNY   73  51  45 SW17      29.77R
$$
MNZ065>067-074>077-082>085-091>093-031600-
   South Central Minnesota

CITY           SKY/WX    TMP DP  RH WIND       PRES   REMARKS
MANKATO        MOSUNNY   66  52  59 S8        29.78F
NEW ULM          N/A    N/A N/A N/A S5        29.77S
ST JAMES       SUNNY     72  52  49 S8        29.78S
FAIRMONT       SUNNY     68  52  56 S8        29.79R
GLENCOE        MOSUNNY   65  55  71 SE8       29.75F
FARIBAULT      PTSUNNY   63  54  72 CALM      29.80F
OWATONNA       PTSUNNY   68  52  56 SW7       29.80S
WASECA         PTSUNNY   70  52  52 SW7       29.80F
ALBERT LEA     MOSUNNY   66  54  63 S8        29.80R
$$
MNZ078>079-086>088-094>096-031600-
   Southeast Minnesota

CITY           SKY/WX    TMP DP  RH WIND       PRES   REMARKS
ROCHESTER      CLOUDY    65  53  65 S10       29.83R
RED WING       PTSUNNY   66  52  59 S7        29.80R
STANTON        CLOUDY    66  53  62 W5        29.79S
DODGE CENTER   CLOUDY    66  55  68 SW8       29.81S
WINONA         PTSUNNY   66  52  59 SE3       29.82S
AUSTIN         PTSUNNY   66  54  63 S12       29.81S
PRESTON        PTSUNNY   63  52  67 S10       29.84R
$$
ABBREVIATIONS USED IN REMARKS
   TC - TEMPERATURES IN CELSIUS
  WCI - WIND CHILL INDEX
   HX - HEAT INDEX
  VSB - VISIBILITY
$$


USA.gov is the U.S. government's official web portal to all federal, state and local government web resources and services.